Terminal Aerodrome Forecast
Issued by NWS

Home | Current Version | Previous Version | Text Only | Print | Product List | Glossary On
Versions: 1 2 3 4 5 6 7 8 9 10 11 12 13 14
000
FTUS44 KCRP 212300
TAFALI
TAF
KALI 212325Z 2200/2224 09011G18KT P6SM SCT030
     FM220100 09007KT P6SM FEW015
     FM220900 06004KT 4SM BR SKC
     FM221100 VRB03KT 2SM BR SCT001
     FM221430 06010KT P6SM SKC=

USA.gov is the U.S. government's official web portal to all federal, state and local government web resources and services.